Starlink 3895

operational
NORAD ID: 52583 Int'l Des: 2022-051 Owner: SPXS Country: US Constellation: starlink
LEOCIRCULAR

About Starlink 3895

Description loading...

Live Position

Loading 3D Globe...

Upcoming Passes

Altitude History

Altitude vs Time

uPlot chart will show altitude changes over time

Two-Line Element Set

1 52583U 22051AZ 25353.38756511 -.00000671 00000-0 -24088-4 0 9999
2 52583 53.2181 119.6108 0001439 60.0341 300.0794 15.08845637199461
Epoch: Dec 19, 2025 • Age: 13 hours

Current Status

Altitude 547.4 km
Velocity 7.59 km/s
Sub-Earth Point -26.00°S, 39.14°E
Launch Date May 13, 2022
Age 3.6 years
Type internet

Technical Details

Classification Payload
Mass 297.00 kg
Dry Mass 275.00 kg
Total Mass 297.00 kg
Length 0.20 m
Diameter 2.80 m
Span 9.00 m
Shape Box + pan
Manufacturer SPXS
Bus Type Starlink
Phase Status In Orbit
Owner/State SPXS/US

Large Constellations

Loading constellations...